Regional Weather Roundup
Issued by NWS

Home | Current Version | Previous Version | Graphics & Text | Print | Product List | Glossary Off
Versions: 1 2 3 4 5 6 7 8 9 10 11 12 13 14 15 16 17 18 19 20 21 22 23 24 25 26 27 28 29 30 31 32 33 34 35 36 37 38 39 40 41 42 43 44 45 46 47 48 49 50

000
ASUS43 KTOP 051559
RWRKS

WEATHER ROUNDUP FOR KANSAS
NATIONAL WEATHER SERVICE GOODLAND KS
1100 AM CDT TUE MAY 05 2015

NOTE:  "FAIR" INDICATES FEW OR NO CLOUDS BELOW 12,000 FEET WITH NO
SIGNIFICANT WEATHER AND/OR OBSTRUCTIONS TO VISIBILITY.

KSZ001>006-013>018-027>032-041>047-051700-
NORTHWEST KANSAS

CITY           SKY/WX    TMP DP  RH WIND       PRES   REMARKS
GOODLAND       LGT RAIN  57  55  93 SE13      29.97F FOG
HAYS           CLOUDY    66  54  63 S18       30.00S
HILL CITY      CLOUDY    68  59  73 S14       29.98F
RUSSELL        CLOUDY    67  57  70 S20       29.99F
$$

KSZ061>065-074>080-084>089-051700-
SOUTHWEST KANSAS

CITY           SKY/WX    TMP DP  RH WIND       PRES   REMARKS
DODGE CITY     LGT RAIN  58  55  90 SE13      29.98F FOG
ELKHART          N/A     55  51  86 N6          N/A
GARDEN CITY    RAIN      57  56  96 SE15      29.94S FOG
GREAT BEND     CLOUDY    64  55  72 SE18G24   30.00S
LIBERAL        CLOUDY    59  55  88 SE26      29.90F
$$

KSZ066>073-081>083-090>101-051700-
SOUTHEAST KANSAS

CITY           SKY/WX    TMP DP  RH WIND       PRES   REMARKS
CHANUTE        PTSUNNY   74  60  61 S14       30.10F
COFFEYVILLE    PTSUNNY   75  60  59 S15G21    30.09F
HUTCHINSON     CLOUDY    73  56  54 S24G32    30.03S
MEDICINE LODGE   N/A     67  56  67 S14G24    30.00F
NEWTON         CLOUDY    70  55  60 S18G25    30.08S
PARSONS        PTSUNNY   75  59  57 S12G17    30.11F
WICHITA INTL   CLOUDY    72  56  57 S21G28    30.04S
WICHITA JABRA  CLOUDY    72  56  57 S22G28    30.05S
WINFIELD       CLOUDY    72  58  61 S17       30.07F
$$

KSZ007>012-019>026-033>040-048>060-102>105-051700-
NORTHEAST KANSAS

CITY           SKY/WX    TMP DP  RH WIND       PRES   REMARKS
CONCORDIA      PTSUNNY   70  58  65 S13       30.04F
EMPORIA        CLOUDY    72  57  59 S16       30.08S
LAWRENCE       MOSUNNY   74  60  61 S9        30.11R
MANHATTAN      PTSUNNY   73  61  65 S12G21    30.06S
OLATHE IND     SUNNY     75  60  59 S15       30.13R
OLATHE EXE     SUNNY     74  61  63 S12       30.12R
SALINA         CLOUDY    70  59  68 SE14      30.04S HAZE
TOPEKA BILLARD PTSUNNY   73  60  63 S10       30.10S
TOPEKA FORBES  PTSUNNY   75  59  57 S13       30.09S
$$



USA.gov is the U.S. government's official web portal to all federal, state and local government web resources and services.